Weather History for KMLJ - November, 2012

Change the Weather History Date:

Tuesday, November 13, 2012

  Actual Average (KOKZ) Record (KOKZ)
Temperature  
Mean Temperature 58 °F -  
Max Temperature 66 °F 65 °F 55 °F (2014)
Min Temperature 50 °F 40 °F 39 °F (2014)
Degree Days  
Heating Degree Days 7    
Growing Degree Days 8 (Base 50)    
Moisture  
Dew Point 50 °F    
Average Humidity 79    
Maximum Humidity 100    
Minimum Humidity 52    
Precipitation  
Precipitation 0.00 in - - ()
Sea Level Pressure  
Sea Level Pressure 30.25 in    
Wind  
Wind Speed 5 mph (NNW)    
Max Wind Speed 8 mph    
Max Gust Speed -    
Visibility 10 miles    
Events      
Averages and records for this station are not official NWS values.
T = Trace of Precipitation, MM = Missing Value Source: NWS Daily Summary

Daily Weather History Graph

Daily Weather History Graph

Search for Another Location

Airport or City:

Trip Planner

Search our weather history database for the weather conditions in past years. The results will help you decide how hot, cold, wet, or windy it might be!

Date:

Astronomy

Nov. 13, 2012 Rise Set
Actual Time 7:02 AM EST 5:31 PM EST
Civil Twilight 6:36 AM EST 5:58 PM EST
Nautical Twilight 6:06 AM EST 6:27 PM EST
Astronomical Twilight 5:37 AM EST 6:57 PM EST
Moon 6:38 AM EST (11/13) 5:25 PM EST (11/13)
Length of Visible Light 11h 21m
Length of Day
10h 29m
Waning Crescent, 0% of the Moon is Illuminated
Nov 13
Waning Crescent
Nov 13
New
Nov 20
First Quarter
Nov 28
Full
Dec 6
Last Quarter

Hourly Weather History & Observations

Time (EST) Temp. Dew Point Humidity Pressure Visibility Wind Dir Wind Speed Gust Speed Precip Events Conditions
12:15 AM 59.0 °F 59.0 °F 100% 30.22 in 10.0 mi NW 5.8 mph - N/A   Overcast
12:35 AM 59.0 °F 59.0 °F 100% 30.23 in 10.0 mi WNW 4.6 mph - N/A   Overcast
12:55 AM 59.0 °F 59.0 °F 100% 30.23 in 10.0 mi WNW 6.9 mph - N/A   Overcast
1:15 AM 57.2 °F 57.2 °F 100% 30.22 in 10.0 mi WNW 6.9 mph - N/A   Overcast
1:35 AM 57.2 °F 57.2 °F 100% 30.22 in 10.0 mi WNW 6.9 mph - N/A   Overcast
1:55 AM 57.2 °F 57.2 °F 100% 30.21 in 10.0 mi NW 3.5 mph - N/A   Overcast
2:15 AM 55.4 °F 55.4 °F 100% 30.21 in 10.0 mi WNW 4.6 mph - N/A   Overcast
2:35 AM 55.4 °F 55.4 °F 100% 30.21 in 10.0 mi WNW 6.9 mph - N/A   Overcast
2:55 AM 55.4 °F 55.4 °F 100% 30.22 in 10.0 mi WNW 4.6 mph - N/A   Overcast
3:15 AM 55.4 °F 55.4 °F 100% 30.22 in 10.0 mi WNW 3.5 mph - N/A   Overcast
3:35 AM 55.4 °F 55.4 °F 100% 30.22 in 10.0 mi NW 6.9 mph - N/A   Overcast
3:55 AM 55.4 °F 55.4 °F 100% 30.22 in 10.0 mi NW 3.5 mph - N/A   Overcast
4:15 AM 53.6 °F 53.6 °F 100% 30.22 in 10.0 mi NW 4.6 mph - N/A   Overcast
4:35 AM 53.6 °F 53.6 °F 100% 30.22 in 10.0 mi NW 4.6 mph - N/A   Overcast
4:55 AM 53.6 °F 53.6 °F 100% 30.22 in 10.0 mi Calm Calm - N/A   Overcast
5:15 AM 53.6 °F 53.6 °F 100% 30.22 in 10.0 mi WNW 5.8 mph - N/A   Overcast
5:35 AM 53.6 °F 51.8 °F 94% 30.22 in 10.0 mi WNW 4.6 mph - N/A   Overcast
5:55 AM 53.6 °F 51.8 °F 94% 30.23 in 10.0 mi WNW 6.9 mph - N/A   Overcast
6:15 AM 51.8 °F 51.8 °F 100% 30.24 in 10.0 mi West 5.8 mph - N/A   Scattered Clouds
6:35 AM 51.8 °F 50.0 °F 94% 30.24 in 10.0 mi NW 3.5 mph - N/A   Mostly Cloudy
6:55 AM 51.8 °F 50.0 °F 94% 30.25 in 10.0 mi WNW 5.8 mph - N/A   Overcast
7:15 AM 51.8 °F 50.0 °F 94% 30.25 in 10.0 mi West 4.6 mph - N/A   Mostly Cloudy
7:35 AM 50.0 °F 48.2 °F 94% 30.26 in 10.0 mi NW 4.6 mph - N/A   Mostly Cloudy
7:55 AM 50.0 °F 48.2 °F 94% 30.27 in 10.0 mi WNW 6.9 mph - N/A   Scattered Clouds
8:15 AM 50.0 °F 44.6 °F 82% 30.28 in 10.0 mi WNW 6.9 mph - N/A   Scattered Clouds
8:35 AM 50.0 °F 42.8 °F 76% 30.28 in 10.0 mi NW 6.9 mph - N/A   Scattered Clouds
8:55 AM 51.8 °F 44.6 °F 76% 30.29 in 10.0 mi NW 3.5 mph - N/A   Scattered Clouds
9:15 AM 51.8 °F 44.6 °F 76% 30.29 in 10.0 mi NW 4.6 mph - N/A   Scattered Clouds
9:35 AM 51.8 °F 42.8 °F 71% 30.29 in 10.0 mi WNW 8.1 mph - N/A   Scattered Clouds
9:55 AM 53.6 °F 42.8 °F 67% 30.29 in 10.0 mi NNW 5.8 mph - N/A   Clear
10:15 AM 55.4 °F 42.8 °F 63% 30.29 in 10.0 mi WNW 5.8 mph - N/A   Clear
10:35 AM 55.4 °F 42.8 °F 63% 30.29 in 10.0 mi NW 4.6 mph - N/A   Clear
10:55 AM 57.2 °F 42.8 °F 59% 30.29 in 10.0 mi NW 4.6 mph - N/A   Clear
11:15 AM 59.0 °F 44.6 °F 59% 30.28 in 10.0 mi North 3.5 mph - N/A   Clear
11:35 AM 59.0 °F 44.6 °F 59% 30.28 in 10.0 mi WNW 6.9 mph - N/A   Clear
11:55 AM 60.8 °F 44.6 °F 55% 30.27 in 10.0 mi North 5.8 mph - N/A   Clear
12:15 PM 60.8 °F 44.6 °F 55% 30.26 in 10.0 mi NNW 4.6 mph - N/A   Clear
12:35 PM 62.6 °F 46.4 °F 55% 30.24 in 10.0 mi NNW 3.5 mph - N/A   Clear
12:55 PM 62.6 °F 46.4 °F 55% 30.24 in 10.0 mi NW 3.5 mph - N/A   Clear
1:15 PM 64.4 °F 46.4 °F 52% 30.23 in 10.0 mi North 4.6 mph - N/A   Clear
1:35 PM 64.4 °F 48.2 °F 56% 30.22 in 10.0 mi North 4.6 mph - N/A   Clear
1:55 PM 64.4 °F 50.0 °F 59% 30.22 in 10.0 mi NW 5.8 mph - N/A   Clear
2:55 PM 66.2 °F 50.0 °F 56% 30.22 in 10.0 mi NNW 3.5 mph - N/A   Scattered Clouds
3:15 PM 64.4 °F 50.0 °F 59% 30.22 in 10.0 mi North 3.5 mph - N/A   Clear
3:55 PM 62.6 °F 50.0 °F 63% 30.23 in 10.0 mi Calm Calm - N/A   Scattered Clouds
4:15 PM 64.4 °F 50.0 °F 59% 30.23 in 10.0 mi NE 4.6 mph - N/A   Scattered Clouds
4:35 PM 62.6 °F 50.0 °F 63% 30.23 in 10.0 mi East 4.6 mph - N/A   Scattered Clouds
4:55 PM 62.6 °F 50.0 °F 63% 30.23 in 10.0 mi ENE 4.6 mph - N/A   Scattered Clouds
5:15 PM 60.8 °F 50.0 °F 68% 30.23 in 10.0 mi East 3.5 mph - N/A   Clear
5:55 PM 59.0 °F 50.0 °F 72% 30.24 in 10.0 mi Calm Calm - N/A   Clear
6:15 PM 59.0 °F 51.8 °F 77% 30.25 in 10.0 mi ENE 3.5 mph - N/A   Clear
6:35 PM 59.0 °F 51.8 °F 77% 30.26 in 10.0 mi Calm Calm - N/A   Clear
6:55 PM 59.0 °F 53.6 °F 82% 30.27 in 10.0 mi ENE 4.6 mph - N/A   Clear
7:15 PM 57.2 °F 53.6 °F 88% 30.27 in 10.0 mi ENE 3.5 mph - N/A   Scattered Clouds
7:35 PM 57.2 °F 53.6 °F 88% 30.28 in 10.0 mi East 3.5 mph - N/A   Clear
7:55 PM 57.2 °F 53.6 °F 88% 30.28 in 10.0 mi ENE 3.5 mph - N/A   Mostly Cloudy
8:15 PM 55.4 °F 53.6 °F 94% 30.29 in 10.0 mi ENE 3.5 mph - N/A   Mostly Cloudy
8:55 PM 55.4 °F 53.6 °F 94% 30.29 in 10.0 mi ENE 3.5 mph - N/A   Clear
9:15 PM 55.4 °F 51.8 °F 88% 30.29 in 10.0 mi ENE 4.6 mph - N/A   Clear
9:35 PM 55.4 °F 48.2 °F 77% 30.29 in 10.0 mi NE 4.6 mph - N/A   Clear
9:55 PM 53.6 °F 44.6 °F 72% 30.30 in 10.0 mi NE 3.5 mph - N/A   Clear
10:15 PM 53.6 °F 44.6 °F 72% 30.31 in 10.0 mi ENE 3.5 mph - N/A   Clear
10:35 PM 53.6 °F 42.8 °F 67% 30.30 in 10.0 mi ENE 4.6 mph - N/A   Clear
10:55 PM 53.6 °F 42.8 °F 67% 30.30 in 10.0 mi ENE 4.6 mph - N/A   Clear
11:15 PM 53.6 °F 42.8 °F 67% 30.30 in 10.0 mi East 3.5 mph - N/A   Clear
11:35 PM 53.6 °F 42.8 °F 67% 30.30 in 10.0 mi ENE 4.6 mph - N/A   Clear
11:55 PM 53.6 °F 41.0 °F 62% 30.30 in 10.0 mi East 8.1 mph - N/A   Clear